Time,TemperatureF,DewpointF,PressureIn,WindDirection,WindDirectionDegrees,WindSpeedMPH,WindSpeedGustMPH,Humidity,HourlyPrecipIn,Conditions,Clouds,dailyrainin,SoftwareType,DateUTC
2013-05-13 00:00:00,50.0,38.3,29.87,North,-999,-999.0,0.0,64,0.00,,---,0.00,VWS V14.01,2013-05-13 04:00:00,
2013-05-13 00:01:00,50.0,38.3,29.87,North,-999,-999.0,0.0,64,0.00,,---,0.00,VWS V14.01,2013-05-13 04:01:00,
2013-05-13 00:02:00,50.0,38.3,29.87,North,-999,-999.0,0.0,64,0.00,,---,0.00,VWS V14.01,2013-05-13 04:02:00,
2013-05-13 00:03:00,49.9,38.2,29.87,North,-999,-999.0,0.0,64,0.00,,---,0.00,VWS V14.01,2013-05-13 04:03:00,
2013-05-13 00:09:00,49.7,38.0,29.87,North,-999,-999.0,0.0,64,0.00,,---,0.00,VWS V14.01,2013-05-13 04:09:00,
2013-05-13 00:12:00,49.3,37.7,29.88,North,-999,-999.0,0.0,64,0.00,,---,0.00,VWS V14.01,2013-05-13 04:12:00,
2013-05-13 00:17:00,49.1,37.9,29.87,North,-999,-999.0,0.0,65,0.00,,---,0.00,VWS V14.01,2013-05-13 04:17:00,
2013-05-13 00:22:00,48.8,38.0,29.88,North,-999,-999.0,0.0,66,0.00,,---,0.00,VWS V14.01,2013-05-13 04:22:00,
2013-05-13 00:27:00,48.6,37.8,29.87,North,-999,-999.0,0.0,66,0.00,,---,0.00,VWS V14.01,2013-05-13 04:27:00,
2013-05-13 00:32:00,48.4,38.0,29.87,North,-999,-999.0,0.0,67,0.00,,---,0.00,VWS V14.01,2013-05-13 04:32:00,
2013-05-13 00:37:00,48.2,37.8,29.87,North,-999,-999.0,0.0,67,0.00,,---,0.00,VWS V14.01,2013-05-13 04:37:00,
2013-05-13 00:42:00,48.1,38.0,29.88,North,-999,-999.0,0.0,68,0.00,,---,0.00,VWS V14.01,2013-05-13 04:42:00,
2013-05-13 00:47:00,47.9,37.9,29.88,North,-999,-999.0,0.0,68,0.00,,---,0.00,VWS V14.01,2013-05-13 04:47:00,
2013-05-13 00:52:00,47.7,38.0,29.87,North,-999,-999.0,0.0,69,0.00,,---,0.00,VWS V14.01,2013-05-13 04:52:00,
2013-05-13 00:57:00,47.7,38.0,29.88,North,-999,-999.0,0.0,69,0.00,,---,0.00,VWS V14.01,2013-05-13 04:57:00,
2013-05-13 01:03:00,47.2,37.9,29.88,North,-999,-999.0,0.0,70,0.00,,---,0.00,VWS V14.01,2013-05-13 05:03:00,
2013-05-13 01:08:00,47.2,37.9,29.88,North,-999,-999.0,0.0,70,0.00,,---,0.00,VWS V14.01,2013-05-13 05:08:00,
2013-05-13 01:13:00,46.8,37.9,29.88,North,-999,-999.0,0.0,71,0.00,,---,0.00,VWS V14.01,2013-05-13 05:13:00,
2013-05-13 01:18:00,46.6,38.1,29.88,North,-999,-999.0,0.0,72,0.00,,---,0.00,VWS V14.01,2013-05-13 05:18:00,
2013-05-13 01:23:00,46.4,37.9,29.88,North,-999,-999.0,0.0,72,0.00,,---,0.00,VWS V14.01,2013-05-13 05:23:00,
2013-05-13 01:28:00,46.3,37.8,29.88,North,-999,-999.0,0.0,72,0.00,,---,0.00,VWS V14.01,2013-05-13 05:28:00,
2013-05-13 01:33:00,46.1,37.9,29.88,North,-999,-999.0,0.0,73,0.00,,---,0.00,VWS V14.01,2013-05-13 05:33:00,
2013-05-13 01:38:00,45.9,37.8,29.89,North,-999,-999.0,0.0,73,0.00,,---,0.00,VWS V14.01,2013-05-13 05:38:00,
2013-05-13 01:43:00,45.7,37.5,29.89,North,-999,-999.0,0.0,73,0.00,,---,0.00,VWS V14.01,2013-05-13 05:43:00,
2013-05-13 01:48:00,45.7,38.2,29.88,North,-999,-999.0,0.0,75,0.00,,---,0.00,VWS V14.01,2013-05-13 05:48:00,
2013-05-13 01:53:00,45.5,38.0,29.88,North,-999,-999.0,0.0,75,0.00,,---,0.00,VWS V14.01,2013-05-13 05:53:00,
2013-05-13 01:59:00,45.5,38.0,29.88,North,-999,-999.0,0.0,75,0.00,,---,0.00,VWS V14.01,2013-05-13 05:59:00,
2013-05-13 02:00:00,45.4,37.6,29.89,North,-999,-999.0,0.0,74,0.00,,---,0.00,VWS V14.01,2013-05-13 06:00:00,
2013-05-13 02:05:00,45.4,37.6,29.89,North,-999,-999.0,0.0,74,0.00,,---,0.00,VWS V14.01,2013-05-13 06:05:00,
2013-05-13 03:00:00,43.6,36.9,29.89,North,-999,-999.0,0.0,77,0.00,,---,0.00,VWS V14.01,2013-05-13 07:00:00,
2013-05-13 03:05:00,43.6,37.2,29.89,North,-999,-999.0,0.0,78,0.00,,---,0.00,VWS V14.01,2013-05-13 07:05:00,
2013-05-13 03:10:00,43.4,37.0,29.89,North,-999,-999.0,0.0,78,0.00,,---,0.00,VWS V14.01,2013-05-13 07:10:00,
2013-05-13 03:15:00,43.2,36.8,29.89,North,-999,-999.0,0.0,78,0.00,,---,0.00,VWS V14.01,2013-05-13 07:15:00,
2013-05-13 03:20:00,43.2,36.8,29.89,North,-999,-999.0,0.0,78,0.00,,---,0.00,VWS V14.01,2013-05-13 07:20:00,
2013-05-13 03:25:00,43.2,36.8,29.90,North,-999,-999.0,0.0,78,0.00,,---,0.00,VWS V14.01,2013-05-13 07:25:00,
2013-05-13 03:30:00,43.0,36.6,29.90,North,-999,-999.0,0.0,78,0.00,,---,0.00,VWS V14.01,2013-05-13 07:30:00,
2013-05-13 03:32:00,43.0,36.6,29.90,North,-999,-999.0,0.0,78,0.00,,---,0.00,VWS V14.01,2013-05-13 07:32:00,
2013-05-13 03:36:00,43.0,36.6,29.90,North,-999,-999.0,0.0,78,0.00,,---,0.00,VWS V14.01,2013-05-13 07:36:00,
2013-05-13 03:42:00,43.0,36.6,29.90,North,-999,-999.0,0.0,78,0.00,,---,0.00,VWS V14.01,2013-05-13 07:42:00,
2013-05-13 04:00:00,42.3,36.6,29.91,North,-999,-999.0,0.0,80,0.00,,---,0.00,VWS V14.01,2013-05-13 08:00:00,
2013-05-13 04:06:00,42.3,36.6,29.91,North,-999,-999.0,0.0,80,0.00,,---,0.00,VWS V14.01,2013-05-13 08:06:00,
2013-05-13 05:00:00,41.4,36.0,29.92,North,-999,-999.0,0.0,81,0.00,,---,0.00,VWS V14.01,2013-05-13 09:00:00,
2013-05-13 05:06:00,41.4,36.0,29.92,North,-999,-999.0,0.0,81,0.00,,---,0.00,VWS V14.01,2013-05-13 09:06:00,
2013-05-13 06:00:00,40.7,35.6,29.92,North,-999,-999.0,0.0,82,0.00,,---,0.00,VWS V14.01,2013-05-13 10:00:00,
2013-05-13 06:05:00,40.7,35.6,29.93,North,-999,-999.0,0.0,82,0.00,,---,0.00,VWS V14.01,2013-05-13 10:05:00,
2013-05-13 06:10:00,40.7,35.6,29.93,North,-999,-999.0,0.0,82,0.00,,---,0.00,VWS V14.01,2013-05-13 10:10:00,
2013-05-13 06:15:00,40.5,35.5,29.93,North,-999,-999.0,0.0,82,0.00,,---,0.00,VWS V14.01,2013-05-13 10:15:00,
2013-05-13 06:20:00,40.3,35.6,29.94,North,-999,-999.0,0.0,83,0.00,,---,0.00,VWS V14.01,2013-05-13 10:20:00,
2013-05-13 06:25:00,40.3,35.6,29.94,North,-999,-999.0,0.0,83,0.00,,---,0.00,VWS V14.01,2013-05-13 10:25:00,
2013-05-13 06:30:00,40.1,35.1,29.94,North,-999,-999.0,0.0,82,0.00,,---,0.00,VWS V14.01,2013-05-13 10:30:00,
2013-05-13 06:36:00,40.1,35.1,29.94,North,-999,-999.0,0.0,82,0.00,,---,0.00,VWS V14.01,2013-05-13 10:36:00,
2013-05-13 06:41:00,40.0,35.0,29.95,North,-999,-999.0,0.0,82,0.00,,---,0.00,VWS V14.01,2013-05-13 10:41:00,
2013-05-13 06:46:00,40.0,35.0,29.95,North,-999,-999.0,0.0,82,0.00,,---,0.00,VWS V14.01,2013-05-13 10:46:00,
2013-05-13 06:52:00,40.0,35.0,29.95,North,-999,-999.0,0.0,82,0.00,,---,0.00,VWS V14.01,2013-05-13 10:52:00,
2013-05-13 07:00:00,40.0,35.0,29.95,North,-999,-999.0,0.0,82,0.00,,---,0.00,VWS V14.01,2013-05-13 11:00:00,
2013-05-13 07:06:00,40.0,35.0,29.95,North,-999,-999.0,0.0,82,0.00,,---,0.00,VWS V14.01,2013-05-13 11:06:00,
2013-05-13 11:00:00,60.3,40.0,30.00,North,-999,-999.0,0.0,47,0.00,,---,0.00,VWS V14.01,2013-05-13 15:00:00,
2013-05-13 11:05:00,60.3,40.0,30.00,North,-999,-999.0,0.0,47,0.00,,---,0.00,VWS V14.01,2013-05-13 15:05:00,
2013-05-13 12:00:00,73.1,45.3,29.99,North,-999,-999.0,0.0,37,0.00,,---,0.00,VWS V14.01,2013-05-13 16:00:00,
2013-05-13 12:05:00,73.1,45.3,29.99,North,-999,-999.0,0.0,37,0.00,,---,0.00,VWS V14.01,2013-05-13 16:05:00,
2013-05-13 15:00:00,74.7,39.5,29.92,North,-999,-999.0,0.0,28,0.00,,---,0.48,VWS V14.01,2013-05-13 19:00:00,
2013-05-13 15:06:00,74.7,39.5,29.92,North,-999,-999.0,0.0,28,0.00,,---,0.00,VWS V14.01,2013-05-13 19:06:00,
2013-05-13 16:00:00,81.7,40.3,29.89,North,-999,-999.0,0.0,23,0.00,,---,0.00,VWS V14.01,2013-05-13 20:00:00,
2013-05-13 16:06:00,81.7,40.3,29.89,North,-999,-999.0,0.0,23,0.00,,---,0.00,VWS V14.01,2013-05-13 20:06:00,
2013-05-13 17:00:00,79.0,37.0,29.87,North,-999,-999.0,0.0,22,0.00,,---,0.00,VWS V14.01,2013-05-13 21:00:00,
2013-05-13 17:05:00,78.8,37.9,29.87,North,-999,-999.0,0.0,23,0.00,,---,0.00,VWS V14.01,2013-05-13 21:05:00,
2013-05-13 17:10:00,77.9,36.0,29.87,North,-999,-999.0,0.0,22,0.00,,---,0.00,VWS V14.01,2013-05-13 21:10:00,
2013-05-13 17:15:00,77.4,35.6,29.87,North,-999,-999.0,0.0,22,0.00,,---,0.00,VWS V14.01,2013-05-13 21:15:00,
2013-05-13 17:20:00,77.8,37.1,29.87,North,-999,-999.0,0.0,23,0.00,,---,0.00,VWS V14.01,2013-05-13 21:20:00,
2013-05-13 17:25:00,77.4,36.7,29.87,North,-999,-999.0,0.0,23,0.00,,---,0.00,VWS V14.01,2013-05-13 21:25:00,
2013-05-13 17:30:00,77.2,37.7,29.87,North,-999,-999.0,0.0,24,0.00,,---,0.00,VWS V14.01,2013-05-13 21:30:00,
2013-05-13 17:35:00,78.7,36.7,29.87,North,-999,-999.0,0.0,22,0.00,,---,0.00,VWS V14.01,2013-05-13 21:35:00,
2013-05-13 17:40:00,78.3,37.5,29.87,North,-999,-999.0,0.0,23,0.00,,---,0.00,VWS V14.01,2013-05-13 21:40:00,
2013-05-13 17:45:00,77.6,36.9,29.87,North,-999,-999.0,0.0,23,0.00,,---,0.00,VWS V14.01,2013-05-13 21:45:00,
2013-05-13 17:50:00,77.4,37.8,29.87,North,-999,-999.0,0.0,24,0.00,,---,0.00,VWS V14.01,2013-05-13 21:50:00,
2013-05-13 17:55:00,77.8,38.2,29.87,North,-999,-999.0,0.0,24,0.00,,---,0.00,VWS V14.01,2013-05-13 21:55:00,
2013-05-13 18:01:00,78.1,38.4,29.87,North,-999,-999.0,0.0,24,0.00,,---,0.00,VWS V14.01,2013-05-13 22:01:00,
2013-05-13 18:06:00,78.7,37.8,29.87,North,-999,-999.0,0.0,23,0.00,,---,0.00,VWS V14.01,2013-05-13 22:06:00,
2013-05-13 18:08:00,78.7,38.9,29.87,North,-999,-999.0,0.0,24,0.00,,---,0.00,VWS V14.01,2013-05-13 22:08:00,
2013-05-13 18:12:00,78.7,38.9,29.87,North,-999,-999.0,0.0,24,0.00,,---,0.00,VWS V14.01,2013-05-13 22:12:00,
2013-05-13 19:00:00,75.1,36.9,29.87,North,-999,-999.0,0.0,25,0.00,,---,0.00,VWS V14.01,2013-05-13 23:00:00,
2013-05-13 19:06:00,75.1,36.9,29.87,North,-999,-999.0,0.0,25,0.00,,---,0.00,VWS V14.01,2013-05-13 23:06:00,
2013-05-13 22:59:00,50.9,36.2,29.98,North,-999,-999.0,0.0,57,0.05,,---,0.05,VWS V14.01,2013-05-14 02:59:00,
2013-05-13 23:05:00,50.8,36.6,29.98,North,-999,-999.0,0.0,58,0.00,,---,0.05,VWS V14.01,2013-05-14 03:05:00,
2013-05-13 23:10:00,50.2,36.4,29.98,North,-999,-999.0,0.0,59,0.00,,---,0.05,VWS V14.01,2013-05-14 03:10:00,
2013-05-13 23:15:00,50.0,36.2,29.98,North,-999,-999.0,0.0,59,0.00,,---,0.05,VWS V14.01,2013-05-14 03:15:00,
2013-05-13 23:21:00,49.5,36.6,29.98,North,-999,-999.0,0.0,61,0.00,,---,0.05,VWS V14.01,2013-05-14 03:21:00,
2013-05-13 23:26:00,49.3,36.8,29.98,North,-999,-999.0,0.0,62,0.00,,---,0.05,VWS V14.01,2013-05-14 03:26:00,
2013-05-13 23:31:00,49.1,36.7,29.98,North,-999,-999.0,0.0,62,0.00,,---,0.05,VWS V14.01,2013-05-14 03:31:00,
2013-05-13 23:36:00,49.1,36.7,29.98,North,-999,-999.0,0.0,62,0.00,,---,0.05,VWS V14.01,2013-05-14 03:36:00,
2013-05-13 23:41:00,49.0,37.0,29.98,North,-999,-999.0,0.0,63,0.00,,---,0.05,VWS V14.01,2013-05-14 03:41:00,
2013-05-13 23:46:00,48.6,36.6,29.99,North,-999,-999.0,0.0,63,0.00,,---,0.05,VWS V14.01,2013-05-14 03:46:00,
2013-05-13 23:51:00,48.2,36.2,29.99,North,-999,-999.0,0.0,63,0.00,,---,0.05,VWS V14.01,2013-05-14 03:51:00,
2013-05-13 23:56:00,47.9,36.3,29.99,North,-999,-999.0,0.0,64,0.00,,---,0.05,VWS V14.01,2013-05-14 03:56:00,